EW6143 Weather Reports


time (UTC)temp
F
wind
direction
speed
knots
gust
knots
rain 1hr
in
rain 24hr
in
rain mn
in
humidity
%
barometer
mb
20260831094536 81 0 0.9 3.5 0.00 0.00 0.00 63 1015.3
20260831093039 81 301 0.9 3.5 0.00 0.00 0.00 62 1015.2
20260831091551 81 288 0.9 3.5 0.00 0.00 0.00 61 1015.1
20260831090035 81 275 0.9 3.5 0.00 0.00 0.00 61 1014.9
20260831084539 81 304 0.0 1.7 0.00 0.00 0.00 60 1014.9
20260831083037 81 0 0.0 0.0 0.00 0.00 0.00 60 1014.8
20260831081538 81 0 0.0 1.7 0.00 0.00 0.00 60 1014.7
20260831080056 81 304 0.9 2.6 0.00 0.00 0.00 61 1014.7
20260831074538 82 308 0.9 3.5 0.00 0.00 0.00 61 1014.5
20260831073058 82 0 0.0 0.0 0.00 0.00 0.00 61 1014.5
20260831071542 82 0 0.0 0.0 0.00 0.00 0.00 62 1014.3
20260831070034 82 0 0.0 0.9 0.00 0.00 0.00 61 1014.4
20260831064539 82 0 0.0 0.9 0.00 0.00 0.00 60 1014.7
20260831063042 82 0 0.0 0.9 0.00 0.00 0.00 59 1014.5
20260831061535 82 0 0.0 1.7 0.00 0.00 0.00 59 1014.5
20260831060042 83 0 0.0 0.9 0.00 0.00 0.00 59 1014.5
20260831054543 83 0 0.0 0.9 0.00 0.00 0.00 59 1014.7
20260831053044 83 0 0.0 0.9 0.00 0.00 0.00 59 1014.6
20260831051539 84 0 0.0 0.0 0.00 0.00 0.00 58 1014.5
20260831050037 84 0 0.0 0.0 0.00 0.00 0.00 57 1014.4
20260831044546 85 0 0.0 0.0 0.00 0.00 0.00 55 1014.4
20260831043037 86 0 0.0 0.0 0.00 0.00 0.00 54 1014.4
20260831041540 86 0 0.0 0.0 0.00 0.00 0.00 53 1014.3
20260831040035 86 0 0.0 0.0 0.00 0.00 0.00 52 1014.3
20260831034534 87 0 0.0 0.0 0.00 0.00 0.00 51 1014.0
20260831033040 87 0 0.0 0.0 0.00 0.00 0.00 50 1014.1
20260831031537 88 0 0.0 0.0 0.00 0.00 0.00 49 1014.1
20260831030035 89 0 0.0 0.0 0.00 0.00 0.00 47 1014.0
20260831024535 90 0 0.0 0.0 0.00 0.00 0.00 46 1013.8
20260831023035 90 0 0.0 1.7 0.00 0.00 0.00 45 1013.7
20260831021545 91 0 0.0 1.7 0.00 0.00 0.00 44 1013.5
20260831020037 91 0 0.0 0.9 0.00 0.00 0.00 42 1013.3
20260831014537 92 0 0.0 1.7 0.00 0.00 0.00 41 1013.2
20260831013040 93 284 0.9 3.5 0.00 0.00 0.00 40 1012.9
20260831011544 94 281 0.9 2.6 0.00 0.00 0.00 39 1012.7
20260831010044 95 287 0.9 3.5 0.00 0.00 0.00 38 1012.6
20260831004534 96 299 0.9 5.2 0.00 0.00 0.00 36 1012.5
20260831003037 96 285 0.9 5.2 0.00 0.00 0.00 36 1012.5
20260831001539 97 327 2.6 7.8 0.00 0.00 0.00 35 1012.5
20260831000039 97 293 3.5 7.8 0.00 0.00 0.00 35 1012.6
20260830234535 97 254 2.6 7.0 0.00 0.00 0.00 34 1012.8
20260830233037 98 330 4.3 9.6 0.00 0.00 0.00 34 1012.9
20260830231537 98 330 3.5 9.6 0.00 0.00 0.00 34 1012.8
20260830230035 98 355 1.7 9.6 0.00 0.00 0.00 35 1013.0
20260830224538 99 308 4.3 10.4 0.00 0.00 0.00 33 1013.0
20260830223036 99 245 6.1 12.2 0.00 0.00 0.00 33 1013.1
20260830221536 99 340 2.6 9.6 0.00 0.00 0.00 34 1013.0
20260830220040 100 324 1.7 9.6 0.00 0.00 0.00 33 1013.1
20260830214538 99 287 6.1 10.4 0.00 0.00 0.00 32 1013.1
20260830213034 100 351 4.3 10.4 0.00 0.00 0.00 30 1013.3
20260830211538 100 289 3.5 12.2 0.00 0.00 0.00 31 1013.4
20260830210037 99 346 5.2 9.6 0.00 0.00 0.00 33 1013.6
20260830204537 99 343 4.3 9.6 0.00 0.00 0.00 33 1013.9
20260830203037 99 287 3.5 9.6 0.00 0.00 0.00 34 1014.2
20260830201535 100 336 5.2 11.3 0.00 0.00 0.00 34 1014.3
20260830200035 99 274 4.3 12.2 0.00 0.00 0.00 36 1014.6
20260830194545 99 286 6.1 12.2 0.00 0.00 0.00 36 1014.9
20260830193034 98 303 4.3 12.2 0.00 0.00 0.00 39 1015.0
20260830191533 99 294 5.2 13.9 0.00 0.00 0.00 37 1015.3
20260830190035 98 243 4.3 14.8 0.00 0.00 0.00 39 1015.3
20260830184535 98 314 5.2 13.0 0.00 0.00 0.00 39 1015.5
20260830183036 97 309 3.5 11.3 0.00 0.00 0.00 40 1015.5
20260830181536 97 330 6.1 13.0 0.00 0.00 0.00 41 1016.0
20260830180037 97 352 4.3 13.0 0.00 0.00 0.00 42 1016.2
20260830174634 95 15 4.3 13.0 0.00 0.00 0.00 43 1016.3
20260830173036 96 287 6.1 11.3 0.00 0.00 0.00 44 1016.6
20260830171536 95 327 5.2 10.4 0.00 0.00 0.00 45 1016.9
20260830170035 94 5 5.2 9.6 0.00 0.00 0.00 47 1017.0
20260830164536 94 277 3.5 11.3 0.00 0.00 0.00 47 1017.1
20260830163045 93 300 4.3 11.3 0.00 0.00 0.00 49 1017.3
20260830161542 92 348 4.3 8.7 0.00 0.00 0.00 50 1017.4
20260830160034 92 348 4.3 8.7 0.00 0.00 0.00 51 1017.3
20260830154538 91 360 2.6 11.3 0.00 0.00 0.00 54 1017.2
20260830153037 90 325 2.6 8.7 0.00 0.00 0.00 56 1017.3
20260830151545 88 9 3.5 7.8 0.00 0.00 0.00 60 1017.4
20260830150036 87 294 2.6 7.0 0.00 0.00 0.00 61 1017.3
20260830144537 86 355 1.7 5.2 0.00 0.00 0.00 62 1017.4
20260830143033 85 350 1.7 6.1 0.00 0.00 0.00 65 1017.4
20260830141534 84 355 1.7 6.1 0.00 0.00 0.00 67 1017.6
20260830140038 83 318 2.6 7.8 0.00 0.00 0.00 68 1017.5
20260830134537 82 306 3.5 7.0 0.00 0.00 0.00 69 1017.4
20260830133033 82 338 2.6 7.0 0.00 0.00 0.00 70 1017.3
20260830131535 81 296 2.6 6.1 0.00 0.00 0.00 72 1017.2
20260830130051 80 310 1.7 3.5 0.00 0.00 0.00 73 1017.1
20260830124542 79 0 0.9 3.5 0.00 0.00 0.00 73 1016.8
20260830123038 78 303 1.7 3.5 0.00 0.00 0.00 73 1016.6
20260830121536 78 319 0.9 2.6 0.00 0.00 0.00 72 1016.3
20260830120035 78 0 0.0 0.0 0.00 0.00 0.00 71 1016.2
20260830114537 78 0 0.0 1.7 0.00 0.00 0.00 70 1016.0
20260830113040 79 331 0.0 0.0 0.00 0.00 0.00 68 1015.8
20260830111534 79 0 0.0 1.7 0.00 0.00 0.00 66 1015.6
20260830110043 79 0 0.0 0.0 0.00 0.00 0.00 64 1015.6
20260830104538 80 0 0.0 1.7 0.00 0.00 0.00 62 1015.4
20260830103034 80 287 0.0 2.6 0.00 0.00 0.00 61 1015.4
20260830101533 81 287 0.0 1.7 0.00 0.00 0.00 59 1015.3
20260830100033 81 0 0.0 3.5 0.00 0.00 0.00 58 1015.2